Home > Weather > San Pedro Sula > Past weeks

Flag for Honduras Past Weather in San Pedro Sula, Honduras — Yesterday and Last 2 Weeks

Now
84 °F

Partly sunny.


Feels Like: 90 °F
Forecast: 76 / 92 °F
Wind: 2 mph from Southwest

Location: La Mesa San Pedro Sula

Current Time: Jun 25, 2016 at 8:20:24 AM

Latest Report: Jun 25, 2016 at 8:00 AM


Visibility: N/A

Pressure: 29.95 "Hg

Humidity: 66%

Dew Point: 72 °F

Location of San Pedro SulaLocation

Past Weather in San Pedro Sula — Graph

°F

San Pedro Sula Temperature Yesterday

Maximum temperature yesterday: 90 °F (at 12:00 PM)
Minimum temperature yesterday: 75 °F (at 3:00 AM)
Average temperature yesterday: 83 °F

High & Low Weather Summary for the Past Weeks

 TemperatureHumidityPressure
High95 °F (Jun 10, 1:00 PM)100% (Jun 23, 1:00 AM)30.04 "Hg (Jun 23, 1:00 AM)
Low73 °F (Jun 22, 6:00 AM)44% (Jun 11, 1:00 PM)29.80 "Hg (Jun 18, 3:00 PM)
Average83 °F70%29.94 "Hg
* Reported Jun 10 7:00 AM — Jun 25 7:00 AM, San Pedro Sula, Weather by CustomWeather, © 2016

Note: Actual official high and low records may vary slightly from our data, if they occured in-between our weather recording intervals... More about our weather records

Advertising

San Pedro Sula Weather History for the Previous 24 Hours

Scroll right to see more
 ConditionsComfort  
Time TempWeatherWind HumidityBarometerVisibility
7:00 AM
Sat, Jun 25
81 °FPartly sunny.5 mph70%29.95 "HgN/A
6:00 AM79 °FPartly sunny.No wind74%29.95 "HgN/A
5:00 AM77 °FPartly cloudy.No wind83%29.92 "HgN/A
4:00 AM77 °FPassing clouds.No wind83%29.92 "HgN/A
3:00 AM77 °FPassing clouds.No wind83%29.92 "HgN/A
2:00 AM79 °FPassing clouds.No wind79%29.95 "HgN/A
1:00 AM79 °FPassing clouds.No wind79%29.95 "HgN/A
12:00 AM81 °FPassing clouds.No wind74%29.95 "HgN/A
11:00 PM
Fri, Jun 24
81 °FPassing clouds.5 mph74%29.98 "HgN/A
10:00 PM81 °FPassing clouds.7 mph74%29.98 "HgN/A
9:00 PM82 °FPassing clouds.9 mph70%29.95 "HgN/A
8:00 PM82 °FPassing clouds.12 mph66%29.95 "HgN/A
7:00 PM82 °FPassing clouds.12 mph66%29.92 "HgN/A
6:00 PM84 °FScattered clouds.13 mph58%N/AN/A
5:00 PM88 °FPassing clouds.13 mph55%29.89 "HgN/A
4:00 PM90 °FScattered clouds.18 mph46%29.89 "HgN/A
3:00 PM90 °FScattered clouds.15 mph49%29.89 "HgN/A
1:00 PM90 °FBroken clouds.8 mph49%29.92 "HgN/A
12:00 PM90 °FBroken clouds.9 mph52%29.95 "HgN/A
11:00 AM88 °FBroken clouds.6 mph59%29.98 "HgN/A
10:00 AM88 °FBroken clouds.7 mph55%29.98 "HgN/A
9:00 AM86 °FBroken clouds.3 mph62%30.01 "HgN/A
8:00 AM82 °FPartly sunny.No wind74%30.01 "HgN/A
Weather by CustomWeather, © 2016

See weather overviewHow to use our weather pages